Location: Chuathbaluk
(61.5726°N, 159.2454°W)
Time: 22:38:12
(UTC+00:00)

Transit 2A - Pass Details

Date: 26 November 2020
Orbit: 598 x 960 km, 66.7° (Epoch: 20 January)

Event Time Altitude Azimuth Distance (km) Brightness Sun altitude
Rises 05:27:03 0° 209° (SSW) 3,618 9.8 -25.8°
Reaches altitude 10° 05:29:42 10° 205° (SSW) 2,653 9.0 -26.1°
Enters shadow 05:34:41 48° 164° (SSE) 1,182 6.7 -26.7°
Maximum altitude 05:35:42 53° 131° (SE) 1,098 - -26.9°
Drops below altitude 10° 05:41:18 10° 56° (NE) 2,479 - -27.5°
Sets 05:43:43 0° 52° (NE) 3,362 - -27.8°
